Hyde Park, UT

11:08 AM MST on December 09, 2016 (GMT -0700)
Logan-Cache

Weather History for KLGU - August, 2013

Change the Weather History Date:

Thursday, August 8, 2013

  Actual Average Record
Temperature  
Mean Temperature 72 °F -  
Max Temperature 91 °F 89 °F 99 °F (2001)
Min Temperature 55 °F 55 °F 44 °F (2004)
Cooling Degree Days 8    
Growing Degree Days 22 (Base 50)    
Moisture  
Dew Point 43 °F    
Average Humidity 35    
Maximum Humidity 67    
Minimum Humidity 17    
Precipitation  
Precipitation 0.00 in - - ()
Sea Level Pressure  
Sea Level Pressure 29.88 in    
Wind  
Wind Speed 7 mph (East)    
Max Wind Speed 34 mph    
Max Gust Speed 45 mph    
Visibility 10 miles    
Events Rain , Thunderstorm    
Averages and records for this station are not official NWS values.
T = Trace of Precipitation, MM = Missing Value Source: NWS Daily Summary

Daily Weather History Graph

Daily Weather History Graph

Search for Another Location

Airport or City:

Trip Planner

Search our weather history database for the weather conditions in past years. The results will help you decide how hot, cold, wet, or windy it might be!

Date:

Astronomy

Aug. 08, 2013 Rise Set
Actual Time 6:28 AM MDT 8:36 PM MDT
Civil Twilight 5:58 AM MDT 9:07 PM MDT
Nautical Twilight 5:20 AM MDT 9:44 PM MDT
Astronomical Twilight 4:39 AM MDT 10:25 PM MDT
Moon 8:21 AM MDT (8/8) 9:13 PM MDT (8/8)
Length of Visible Light 15h 08m
Length of Day
14h 07m
Waxing Crescent, 3% of the Moon is Illuminated
Aug 8
Waxing Crescent
Aug 14
First Quarter
Aug 20
Full
Aug 28
Last Quarter
Sep 5
New

Hourly Weather History & Observations

Time (MDT) Temp. Dew Point Humidity Pressure Visibility Wind Dir Wind Speed Gust Speed Precip Events Conditions
12:51 AM 70.0 °F 43.0 °F 38% 29.83 in 10.0 mi ENE 3.5 mph - N/A   Clear
1:51 AM 68.0 °F 44.1 °F 42% 29.83 in 10.0 mi Calm Calm - N/A   Clear
2:51 AM 66.0 °F 42.1 °F 42% 29.83 in 10.0 mi Calm Calm - N/A   Clear
3:51 AM 62.1 °F 44.1 °F 52% 29.83 in 10.0 mi Variable 3.5 mph - N/A   Clear
4:51 AM 60.1 °F 43.0 °F 53% 29.85 in 10.0 mi East 4.6 mph - N/A   Clear
5:51 AM 57.9 °F 44.1 °F 60% 29.86 in 10.0 mi Calm Calm - N/A   Clear
6:51 AM 55.9 °F 45.0 °F 67% 29.88 in 10.0 mi WNW 4.6 mph - N/A   Clear
7:51 AM 64.9 °F 46.0 °F 50% 29.88 in 10.0 mi ENE 3.5 mph - N/A   Clear
8:51 AM 71.1 °F 43.0 °F 36% 29.88 in 10.0 mi Calm Calm - N/A   Clear
9:51 AM 77.0 °F 44.1 °F 31% 29.86 in 10.0 mi NNE 4.6 mph - N/A   Clear
10:51 AM 80.1 °F 42.1 °F 26% 29.87 in 10.0 mi NNE 4.6 mph - N/A   Clear
11:51 AM 82.9 °F 41.0 °F 23% 29.87 in 10.0 mi North 5.8 mph - N/A   Clear
12:51 PM 84.9 °F 39.9 °F 20% 29.85 in 10.0 mi Variable 4.6 mph - N/A   Clear
1:51 PM 88.0 °F 42.1 °F 20% 29.82 in 10.0 mi North 9.2 mph - N/A   Clear
2:51 PM 88.0 °F 41.0 °F 19% 29.81 in 10.0 mi NNE 5.8 mph - N/A   Clear
3:51 PM 90.0 °F 39.0 °F 17% 29.78 in 10.0 mi Calm Calm - N/A   Clear
4:46 PM 87.8 °F 42.8 °F 21% 29.97 in 10.0 mi SSW 17.3 mph 31.1 mph N/A Thunderstorm Clear
4:51 PM 82.9 °F 42.1 °F 24% 29.82 in 9.0 mi South 34.5 mph 42.6 mph N/A Thunderstorm Partly Cloudy
5:01 PM 80.6 °F 42.8 °F 26% 29.98 in 8.0 mi South 29.9 mph 44.9 mph N/A   Clear
5:07 PM 78.8 °F 42.8 °F 28% 29.98 in 10.0 mi South 27.6 mph 38.0 mph N/A Thunderstorm Clear
5:41 PM 78.8 °F 39.2 °F 24% 30.02 in 10.0 mi ESE 24.2 mph 38.0 mph N/A Thunderstorm Mostly Cloudy
5:46 PM 78.8 °F 41.0 °F 26% 30.02 in 10.0 mi ESE 29.9 mph 39.1 mph N/A   Mostly Cloudy
5:51 PM 77.0 °F 42.1 °F 29% 29.88 in 10.0 mi ESE 20.7 mph 39.1 mph N/A Thunderstorm Mostly Cloudy
6:06 PM 73.4 °F 46.4 °F 38% 30.01 in 9.0 mi ESE 24.2 mph 41.4 mph 0.00 in Rain Rain
6:51 PM 78.1 °F 39.9 °F 25% 29.86 in 10.0 mi East 21.9 mph 39.1 mph 0.00 in   Partly Cloudy
7:51 PM 77.0 °F 41.0 °F 28% 29.83 in 10.0 mi South 10.4 mph - N/A   Clear
8:51 PM 73.0 °F 43.0 °F 34% 29.85 in 10.0 mi NW 5.8 mph - N/A   Clear
9:51 PM 66.0 °F 46.0 °F 48% 29.87 in 10.0 mi NW 4.6 mph - N/A   Clear
10:51 PM 66.9 °F 46.9 °F 49% 29.88 in 10.0 mi South 8.1 mph - N/A   Clear
11:51 PM 64.0 °F 48.0 °F 56% 29.88 in 10.0 mi Calm Calm - N/A   Clear